Weather in Kazinka

Russia / Lipetsk Oblast     52°04′20″N   38°23′30″E
temp.,
°C
wind,
m/s
gust,
m/s
humid.,
%
clouds,
%
prec.,
mm/h
press.,
hPa
HPBL,
m
18 may, tue
tue1800:00+17se4117631 0.0 1007205
03:00+15ese477539 0.0 1007106
06:00+15ese48796 0.0 1007166
09:00+20se6116165 0.0 1007489
12:00+23se6947100 0.0 1006971
15:00+23sse5851100 0.0 10051494
18:00+20ssw6878100 0.2 1006544
21:00+15sse51089100 1.1 1008382
19 may, wed
wed1900:00+14se4893100 0.1 1007252
03:00+14ese489495 0.1 1007276
06:00+14se4797100 1.4 1007314
09:00+18sse46778 1.6 1007732
12:00+21sse456055 0.3 10061590
15:00+22sse565597 0.7 10061702
18:00+17s5884100 2.7 1006446
21:00+14s3595100 3.4 1007240
20 may, thu
thu2000:00+12sse369790 0.0 1007215
03:00+12sse5996100 0.6 1007437
06:00+12se489539 0.6 1007322
09:00+15s677975 0.8 1007879
12:00+17s566899 1.8 10081297
15:00+17ssw577054 2.9 10081098
18:00+16sw69825 0.6 1009892
21:00+12sw39920 0.6 1011255
21 may, fri
fri2100:00+11sw499657 0.0 1012247
03:00+11sw51092100 0.0 1014469
06:00+11wsw4788100 0.0 1015368
09:00+11wsw2383100 0.6 1017252
12:00+14w1277100 0.2 1018349
15:00+17n1172100 0.3 1017528
18:00+17ne3478100 0.1 1017356
21:00+14ne4890100 0.3 1018208
22 may, sat
sat2200:00+13ne51196100 0.4 1017287
03:00+13ene61198100 0.4 1016271
06:00+14e51095100 0.0 1015266
09:00+18se587396 0.0 1014524
12:00+22sse7958100 0.0 10141182
15:00+24s685620 0.0 10131454
18:00+24ssw356754 0.0 1013549
21:00+19sse1181100 0.0 101411